Weather in Mossoro

Brazil     5°11′10″S   37°20′27″W
temp.,
°C
wind,
m/s
gust,
m/s
humid.,
%
clouds,
%
prec.,
mm/h
press.,
hPa
HPBL,
m
17 may, mon
mon1700:00+24ese48814 0.0 1014173
03:00+22sse22865 0.0 101330
06:00+22sse24854 0.0 1014104
09:00+29se46567 0.0 10151035
12:00+32sse35400 0.0 10122029
15:00+33ne443941 0.0 10091743
18:00+26nne597826 0.0 1011248
21:00+25ene36710 0.1 1013166
18 may, tue
tue1800:00+24e48790 0.0 1013184
03:00+22se22880 0.0 101230
06:00+22sse22860 0.0 101351
09:00+29se34565 0.0 1015980
12:00+33sse344493 0.0 10122253
15:00+28ne586899 0.0 1010299
18:00+27ne597490 0.1 1012397
21:00+25e5118433 0.9 1014393
19 may, wed
wed1900:00+23ese49902 0.0 1014271
03:00+23ese379017 0.0 1013194
06:00+23se24903 0.0 1014119
09:00+29ese45575 0.0 10151086
12:00+33se354270 0.0 10122263
15:00+30ne665989 0.1 1010726
18:00+26ene498355 1.1 1012216
21:00+24e510835 1.1 1014315
20 may, thu
thu2000:00+23ese38840 0.0 1013262
03:00+22ese36870 0.0 1012179
06:00+22se37880 0.0 1014229
09:00+29ese575720 0.0 10151318
12:00+33se354399 0.0 10122308
15:00+29nne576171 0.0 1010394
18:00+26nne597755 0.0 1012277
21:00+25e48730 0.1 1013212
21 may, fri
fri2100:00+23e511825 0.0 1013296
03:00+22ese37885 0.0 1012163
06:00+22se25905 0.0 1013117
09:00+29se465514 0.0 10141077
12:00+34se35325 0.0 10122087
15:00+33nne65373 0.0 10091262
18:00+26n48799 0.0 1011211
21:00+26e611750 0.1 1013443